Year,Month,Day,Hour,Minute,Value (Times are PST for temperature in C)
2006,06,23,00,00,12.70
2006,06,23,00,01,12.70
2006,06,23,00,02,12.70
2006,06,23,00,03,12.70
2006,06,23,00,04,12.60
2006,06,23,00,05,12.60
2006,06,23,00,06,12.60
2006,06,23,00,07,12.60
2006,06,23,00,08,12.60
2006,06,23,00,09,12.60
2006,06,23,00,10,12.60
2006,06,23,00,11,12.60
2006,06,23,00,12,12.60
2006,06,23,00,13,12.60
2006,06,23,00,14,12.60
2006,06,23,00,15,12.60
2006,06,23,00,16,12.60
2006,06,23,00,17,12.60
2006,06,23,00,18,12.50
2006,06,23,00,19,12.50
2006,06,23,00,20,12.50
2006,06,23,00,21,12.50
2006,06,23,00,22,12.50
2006,06,23,00,23,12.50
2006,06,23,00,24,12.50
2006,06,23,00,25,12.50
2006,06,23,00,26,12.50
2006,06,23,00,27,12.50
2006,06,23,00,28,12.50
2006,06,23,00,29,12.40
2006,06,23,00,30,12.40
2006,06,23,00,31,12.40
2006,06,23,00,32,12.40
2006,06,23,00,33,12.40
2006,06,23,00,34,12.40
2006,06,23,00,35,12.40
2006,06,23,00,36,12.40
2006,06,23,00,37,12.40
2006,06,23,00,38,12.40
2006,06,23,00,39,12.40
2006,06,23,00,40,12.30
2006,06,23,00,41,12.30
2006,06,23,00,42,12.30
2006,06,23,00,43,12.30
2006,06,23,00,44,12.30
2006,06,23,00,45,12.30
2006,06,23,00,46,12.30
2006,06,23,00,47,12.30
2006,06,23,00,48,12.30
2006,06,23,00,49,12.30
2006,06,23,00,50,12.30
2006,06,23,00,51,12.30
2006,06,23,00,52,12.30
2006,06,23,00,53,12.30
2006,06,23,00,54,12.30
2006,06,23,00,55,12.30
2006,06,23,00,56,12.30
2006,06,23,00,57,12.30
2006,06,23,00,58,12.30
2006,06,23,00,59,12.30
2006,06,23,01,00,12.30
2006,06,23,01,01,12.30
2006,06,23,01,02,12.30
2006,06,23,01,03,12.30
2006,06,23,01,04,12.20
2006,06,23,01,05,12.20
2006,06,23,01,06,12.20
2006,06,23,01,07,12.20
2006,06,23,01,08,12.20
2006,06,23,01,09,12.20
2006,06,23,01,10,12.20
2006,06,23,01,11,12.20
2006,06,23,01,12,12.20
2006,06,23,01,13,12.10
2006,06,23,01,14,12.10
2006,06,23,01,15,12.10
2006,06,23,01,16,12.10
2006,06,23,01,17,12.10
2006,06,23,01,18,12.10
2006,06,23,01,19,12.10
2006,06,23,01,20,12.10
2006,06,23,01,21,12.10
2006,06,23,01,22,12.10
2006,06,23,01,23,12.10
2006,06,23,01,24,12.10
2006,06,23,01,25,12.10
2006,06,23,01,26,12.10
2006,06,23,01,27,12.10
2006,06,23,01,28,12.10
2006,06,23,01,29,12.10
2006,06,23,01,30,12.10
2006,06,23,01,31,12.10
2006,06,23,01,32,12.10
2006,06,23,01,33,12.00
2006,06,23,01,34,12.00
2006,06,23,01,35,12.00
2006,06,23,01,36,12.00
2006,06,23,01,37,12.00
2006,06,23,01,38,12.00
2006,06,23,01,39,12.00
2006,06,23,01,40,12.00
2006,06,23,01,41,12.00
2006,06,23,01,42,12.00
2006,06,23,01,43,12.00
2006,06,23,01,44,12.00
2006,06,23,01,45,12.00
2006,06,23,01,46,12.00
2006,06,23,01,47,12.00
2006,06,23,01,48,12.00
2006,06,23,01,49,12.00
2006,06,23,01,50,12.00
2006,06,23,01,51,12.00
2006,06,23,01,52,12.00
2006,06,23,01,53,12.00
2006,06,23,01,54,12.00
2006,06,23,01,55,12.00
2006,06,23,01,56,12.00
2006,06,23,01,57,12.00
2006,06,23,01,58,12.00
2006,06,23,01,59,12.00
2006,06,23,02,00,11.90
2006,06,23,02,01,11.90
2006,06,23,02,02,11.90
2006,06,23,02,03,11.90
2006,06,23,02,04,11.90
2006,06,23,02,05,11.80
2006,06,23,02,06,11.80
2006,06,23,02,07,11.80
2006,06,23,02,08,11.80
2006,06,23,02,09,11.80
2006,06,23,02,10,11.80
2006,06,23,02,11,11.80
2006,06,23,02,12,11.80
2006,06,23,02,13,11.80
2006,06,23,02,14,11.80
2006,06,23,02,15,11.80
2006,06,23,02,16,11.80
2006,06,23,02,17,11.70
2006,06,23,02,18,11.70
2006,06,23,02,19,11.70
2006,06,23,02,20,11.70
2006,06,23,02,21,11.70
2006,06,23,02,22,11.60
2006,06,23,02,23,11.60
2006,06,23,02,24,11.60
2006,06,23,02,25,11.60
2006,06,23,02,26,11.60
2006,06,23,02,27,11.60
2006,06,23,02,28,11.60
2006,06,23,02,29,11.60
2006,06,23,02,30,11.60
2006,06,23,02,31,11.50
2006,06,23,02,32,11.40
2006,06,23,02,33,11.40
2006,06,23,02,34,11.40
2006,06,23,02,35,11.40
2006,06,23,02,36,11.40
2006,06,23,02,37,11.40
2006,06,23,02,38,11.40
2006,06,23,02,39,11.40
2006,06,23,02,40,11.40
2006,06,23,02,41,11.40
2006,06,23,02,42,11.40
2006,06,23,02,43,11.40
2006,06,23,02,44,11.40
2006,06,23,02,45,11.40
2006,06,23,02,46,11.40
2006,06,23,02,47,11.40
2006,06,23,02,48,11.40
2006,06,23,02,49,11.30
2006,06,23,02,50,11.30
2006,06,23,02,51,11.30
2006,06,23,02,52,11.30
2006,06,23,02,53,11.30
2006,06,23,02,54,11.20
2006,06,23,02,55,11.20
2006,06,23,02,56,11.20
2006,06,23,02,57,11.10
2006,06,23,02,58,11.10
2006,06,23,02,59,11.10
2006,06,23,03,00,11.00
2006,06,23,03,01,10.90
2006,06,23,03,02,10.90
2006,06,23,03,03,10.90
2006,06,23,03,04,10.90
2006,06,23,03,05,10.90
2006,06,23,03,06,10.80
2006,06,23,03,07,10.80
2006,06,23,03,08,10.70
2006,06,23,03,09,10.70
2006,06,23,03,10,10.60
2006,06,23,03,11,10.60
2006,06,23,03,12,10.60
2006,06,23,03,13,10.60
2006,06,23,03,14,10.60
2006,06,23,03,15,10.60
2006,06,23,03,16,10.60
2006,06,23,03,17,10.60
2006,06,23,03,18,10.60
2006,06,23,03,19,10.60
2006,06,23,03,20,10.60
2006,06,23,03,21,10.50
2006,06,23,03,22,10.60
2006,06,23,03,23,10.60
2006,06,23,03,24,10.60
2006,06,23,03,25,10.60
2006,06,23,03,26,10.60
2006,06,23,03,27,10.60
2006,06,23,03,28,10.60
2006,06,23,03,29,10.60
2006,06,23,03,30,10.60
2006,06,23,03,31,10.60
2006,06,23,03,32,10.60
2006,06,23,03,33,10.60
2006,06,23,03,34,10.60
2006,06,23,03,35,10.60
2006,06,23,03,36,10.60
2006,06,23,03,37,10.60
2006,06,23,03,38,10.60
2006,06,23,03,39,10.60
2006,06,23,03,40,10.50
2006,06,23,03,41,10.50
2006,06,23,03,42,10.40
2006,06,23,03,43,10.40
2006,06,23,03,44,10.40
2006,06,23,03,45,10.40
2006,06,23,03,46,10.40
2006,06,23,03,47,10.40
2006,06,23,03,48,10.40
2006,06,23,03,49,10.40
2006,06,23,03,50,10.40
2006,06,23,03,51,10.40
2006,06,23,03,52,10.40
2006,06,23,03,53,10.40
2006,06,23,03,54,10.40
2006,06,23,03,55,10.40
2006,06,23,03,56,10.30
2006,06,23,03,57,10.30
2006,06,23,03,58,10.30
2006,06,23,03,59,10.30
2006,06,23,04,00,10.30
2006,06,23,04,01,10.20
2006,06,23,04,02,10.20
2006,06,23,04,03,10.20
2006,06,23,04,04,10.20
2006,06,23,04,05,10.20
2006,06,23,04,06,10.10
2006,06,23,04,07,10.10
2006,06,23,04,08,10.10
2006,06,23,04,09,10.10
2006,06,23,04,10,10.10
2006,06,23,04,11,10.10
2006,06,23,04,12,10.00
2006,06,23,04,13,9.90
2006,06,23,04,14,9.90
2006,06,23,04,15,9.90
2006,06,23,04,16,9.90
2006,06,23,04,17,9.90
2006,06,23,04,18,9.90
2006,06,23,04,19,9.90
2006,06,23,04,20,9.90
2006,06,23,04,21,9.90
2006,06,23,04,22,9.90
2006,06,23,04,23,9.90
2006,06,23,04,24,9.90
2006,06,23,04,25,9.90
2006,06,23,04,26,9.90
2006,06,23,04,27,9.90
2006,06,23,04,28,9.90
2006,06,23,04,29,9.90
2006,06,23,04,30,9.80
2006,06,23,04,31,9.80
2006,06,23,04,32,9.80
2006,06,23,04,33,9.80
2006,06,23,04,34,9.80
2006,06,23,04,35,9.80
2006,06,23,04,36,9.80
2006,06,23,04,37,9.80
2006,06,23,04,38,9.80
2006,06,23,04,39,9.70
2006,06,23,04,40,9.70
2006,06,23,04,41,9.70
2006,06,23,04,42,9.70
2006,06,23,04,43,9.70
2006,06,23,04,44,9.70
2006,06,23,04,45,9.70
2006,06,23,04,46,9.70
2006,06,23,04,47,9.70
2006,06,23,04,48,9.70
2006,06,23,04,49,9.70
2006,06,23,04,50,9.70
2006,06,23,04,51,9.70
2006,06,23,04,52,9.70
2006,06,23,04,53,9.70
2006,06,23,04,54,9.70
2006,06,23,04,55,9.70
2006,06,23,04,56,9.70
2006,06,23,04,57,9.70
2006,06,23,04,58,9.70
2006,06,23,04,59,9.70
2006,06,23,05,00,9.70
2006,06,23,05,01,9.70
2006,06,23,05,02,9.70
2006,06,23,05,03,9.70
2006,06,23,05,04,9.70
2006,06,23,05,05,9.70
2006,06,23,05,06,9.70
2006,06,23,05,07,9.70
2006,06,23,05,08,9.60
2006,06,23,05,09,9.60
2006,06,23,05,10,9.60
2006,06,23,05,11,9.60
2006,06,23,05,12,9.60
2006,06,23,05,13,9.70
2006,06,23,05,14,9.70
2006,06,23,05,15,9.70
2006,06,23,05,16,9.70
2006,06,23,05,17,9.70
2006,06,23,05,18,9.70
2006,06,23,05,19,9.70
2006,06,23,05,20,9.70
2006,06,23,05,21,9.60
2006,06,23,05,22,9.60
2006,06,23,05,23,9.60
2006,06,23,05,24,9.60
2006,06,23,05,25,9.60
2006,06,23,05,26,9.60
2006,06,23,05,27,9.60
2006,06,23,05,28,9.60
2006,06,23,05,29,9.60
2006,06,23,05,30,9.60
2006,06,23,05,31,9.50
2006,06,23,05,32,9.50
2006,06,23,05,33,9.50
2006,06,23,05,34,9.50
2006,06,23,05,35,9.50
2006,06,23,05,36,9.50
2006,06,23,05,37,9.50
2006,06,23,05,38,9.50
2006,06,23,05,39,9.50
2006,06,23,05,40,9.50
2006,06,23,05,41,9.50
2006,06,23,05,42,9.50
2006,06,23,05,43,9.50
2006,06,23,05,44,9.50
2006,06,23,05,45,9.50
2006,06,23,05,46,9.60
2006,06,23,05,47,9.60
2006,06,23,05,48,9.60
2006,06,23,05,49,9.70
2006,06,23,05,50,9.70
2006,06,23,05,51,9.70
2006,06,23,05,52,9.70
2006,06,23,05,53,9.70
2006,06,23,05,54,9.70
2006,06,23,05,55,9.70
2006,06,23,05,56,9.70
2006,06,23,05,57,9.70
2006,06,23,05,58,9.80
2006,06,23,05,59,9.80
2006,06,23,06,00,9.90
2006,06,23,06,01,9.90
2006,06,23,06,02,9.90
2006,06,23,06,03,9.90
2006,06,23,06,04,9.90
2006,06,23,06,05,10.00
2006,06,23,06,06,10.10
2006,06,23,06,07,10.10
2006,06,23,06,08,10.10
2006,06,23,06,09,10.20
2006,06,23,06,10,10.20
2006,06,23,06,11,10.30
2006,06,23,06,12,10.30
2006,06,23,06,13,10.30
2006,06,23,06,14,10.40
2006,06,23,06,15,10.40
2006,06,23,06,16,10.40
2006,06,23,06,17,10.40
2006,06,23,06,18,10.50
2006,06,23,06,19,10.60
2006,06,23,06,20,10.60
2006,06,23,06,21,10.60
2006,06,23,06,22,10.60
2006,06,23,06,23,10.60
2006,06,23,06,24,10.60
2006,06,23,06,25,10.60
2006,06,23,06,26,10.60
2006,06,23,06,27,10.60
2006,06,23,06,28,10.60
2006,06,23,06,29,10.60
2006,06,23,06,30,10.60
2006,06,23,06,31,10.70
2006,06,23,06,32,10.70
2006,06,23,06,33,10.70
2006,06,23,06,34,10.70
2006,06,23,06,35,10.80
2006,06,23,06,36,10.80
2006,06,23,06,37,10.90
2006,06,23,06,38,10.90
2006,06,23,06,39,10.90
2006,06,23,06,40,10.90
2006,06,23,06,41,10.90
2006,06,23,06,42,10.90
2006,06,23,06,43,11.00
2006,06,23,06,44,11.10
2006,06,23,06,45,11.10
2006,06,23,06,46,11.10
2006,06,23,06,47,11.10
2006,06,23,06,48,11.10
2006,06,23,06,49,11.20
2006,06,23,06,50,11.30
2006,06,23,06,51,11.30
2006,06,23,06,52,11.40
2006,06,23,06,53,11.40
2006,06,23,06,54,11.50
2006,06,23,06,55,11.60
2006,06,23,06,56,11.70
2006,06,23,06,57,11.80
2006,06,23,06,58,11.80
2006,06,23,06,59,11.90
2006,06,23,07,00,12.00
2006,06,23,07,01,12.00
2006,06,23,07,02,12.10
2006,06,23,07,03,12.20
2006,06,23,07,04,12.30
2006,06,23,07,05,12.40
2006,06,23,07,06,12.40
2006,06,23,07,07,12.50
2006,06,23,07,08,12.60
2006,06,23,07,09,12.60
2006,06,23,07,10,12.60
2006,06,23,07,11,12.70
2006,06,23,07,12,12.70
2006,06,23,07,13,12.70
2006,06,23,07,14,12.80
2006,06,23,07,15,12.80
2006,06,23,07,16,12.80
2006,06,23,07,17,12.80
2006,06,23,07,18,12.80
2006,06,23,07,19,12.80
2006,06,23,07,20,12.80
2006,06,23,07,21,12.90
2006,06,23,07,22,12.90
2006,06,23,07,23,13.00
2006,06,23,07,24,13.00
2006,06,23,07,25,13.00
2006,06,23,07,26,13.10
2006,06,23,07,27,13.10
2006,06,23,07,28,13.10
2006,06,23,07,29,13.20
2006,06,23,07,30,13.20
2006,06,23,07,31,13.20
2006,06,23,07,32,13.30
2006,06,23,07,33,13.30
2006,06,23,07,34,13.30
2006,06,23,07,35,13.30
2006,06,23,07,36,13.40
2006,06,23,07,37,13.40
2006,06,23,07,38,13.50
2006,06,23,07,39,13.50
2006,06,23,07,40,13.60
2006,06,23,07,41,13.60
2006,06,23,07,42,13.60
2006,06,23,07,43,13.70
2006,06,23,07,44,13.70
2006,06,23,07,45,13.70
2006,06,23,07,46,13.80
2006,06,23,07,47,13.80
2006,06,23,07,48,13.90
2006,06,23,07,49,14.00
2006,06,23,07,50,14.00
2006,06,23,07,51,14.10
2006,06,23,07,52,14.20
2006,06,23,07,53,14.40
2006,06,23,07,54,14.50
2006,06,23,07,55,14.60
2006,06,23,07,56,14.70
2006,06,23,07,57,14.80
2006,06,23,07,58,14.90
2006,06,23,07,59,15.10
2006,06,23,08,00,15.20
2006,06,23,08,01,15.30
2006,06,23,08,02,15.40
2006,06,23,08,03,15.50
2006,06,23,08,04,15.60
2006,06,23,08,05,15.60
2006,06,23,08,06,15.70
2006,06,23,08,07,15.70
2006,06,23,08,08,15.70
2006,06,23,08,09,15.80
2006,06,23,08,10,15.80
2006,06,23,08,11,15.90
2006,06,23,08,12,16.00
2006,06,23,08,13,16.10
2006,06,23,08,14,16.10
2006,06,23,08,15,16.10
2006,06,23,08,16,16.10
2006,06,23,08,17,16.10
2006,06,23,08,18,16.10
2006,06,23,08,19,16.20
2006,06,23,08,20,16.20
2006,06,23,08,21,16.30
2006,06,23,08,22,16.30
2006,06,23,08,23,16.40
2006,06,23,08,24,16.40
2006,06,23,08,25,16.40
2006,06,23,08,26,16.40
2006,06,23,08,27,16.40
2006,06,23,08,28,16.40
2006,06,23,08,29,16.40
2006,06,23,08,30,16.40
2006,06,23,08,31,16.40
2006,06,23,08,32,16.40
2006,06,23,08,33,16.40
2006,06,23,08,34,16.40
2006,06,23,08,35,16.40
2006,06,23,08,36,16.50
2006,06,23,08,37,16.60
2006,06,23,08,38,16.60
2006,06,23,08,39,16.60
2006,06,23,08,40,16.60
2006,06,23,08,41,16.70
2006,06,23,08,42,16.70
2006,06,23,08,43,16.70
2006,06,23,08,44,16.80
2006,06,23,08,45,16.80
2006,06,23,08,46,16.80
2006,06,23,08,47,16.80
2006,06,23,08,48,16.80
2006,06,23,08,49,16.90
2006,06,23,08,50,16.90
2006,06,23,08,51,16.90
2006,06,23,08,52,16.90
2006,06,23,08,53,16.90
2006,06,23,08,54,16.90
2006,06,23,08,55,16.90
2006,06,23,08,56,16.90
2006,06,23,08,57,16.90
2006,06,23,08,58,16.90
2006,06,23,08,59,16.90
2006,06,23,09,00,16.90
2006,06,23,09,01,16.90
2006,06,23,09,02,17.00
2006,06,23,09,03,16.90
2006,06,23,09,04,16.90
2006,06,23,09,05,16.90
2006,06,23,09,06,17.00
2006,06,23,09,07,17.00
2006,06,23,09,08,17.00
2006,06,23,09,09,17.00
2006,06,23,09,10,17.10
2006,06,23,09,11,17.10
2006,06,23,09,12,17.20
2006,06,23,09,13,17.20
2006,06,23,09,14,17.20
2006,06,23,09,15,17.20
2006,06,23,09,16,17.20
2006,06,23,09,17,17.20
2006,06,23,09,18,17.20
2006,06,23,09,19,17.20
2006,06,23,09,20,17.20
2006,06,23,09,21,17.20
2006,06,23,09,22,17.20
2006,06,23,09,23,17.20
2006,06,23,09,24,17.20
2006,06,23,09,25,17.20
2006,06,23,09,26,17.10
2006,06,23,09,27,17.10
2006,06,23,09,28,17.20
2006,06,23,09,29,17.30
2006,06,23,09,30,17.40
2006,06,23,09,31,17.50
2006,06,23,09,32,17.60
2006,06,23,09,33,17.70
2006,06,23,09,34,17.80
2006,06,23,09,35,17.90
2006,06,23,09,36,18.00
2006,06,23,09,37,18.10
2006,06,23,09,38,18.20
2006,06,23,09,39,18.20
2006,06,23,09,40,18.20
2006,06,23,09,41,18.10
2006,06,23,09,42,18.00
2006,06,23,09,43,17.90
2006,06,23,09,44,17.80
2006,06,23,09,45,17.70
2006,06,23,09,46,17.60
2006,06,23,09,47,17.50
2006,06,23,09,48,17.40
2006,06,23,09,49,17.30
2006,06,23,09,50,17.30
2006,06,23,09,51,17.20
2006,06,23,09,52,17.00
2006,06,23,09,53,16.90
2006,06,23,09,54,16.90
2006,06,23,09,55,16.90
2006,06,23,09,56,16.90
2006,06,23,09,57,16.90
2006,06,23,09,58,16.90
2006,06,23,09,59,17.00
2006,06,23,10,00,17.00
2006,06,23,10,01,17.00
2006,06,23,10,02,17.10
2006,06,23,10,03,17.20
2006,06,23,10,04,17.30
2006,06,23,10,05,17.30
2006,06,23,10,06,17.30
2006,06,23,10,07,17.30
2006,06,23,10,08,17.20
2006,06,23,10,09,17.10
2006,06,23,10,10,17.00
2006,06,23,10,11,16.90
2006,06,23,10,12,16.80
2006,06,23,10,13,16.70
2006,06,23,10,14,16.70
2006,06,23,10,15,16.70
2006,06,23,10,16,16.70
2006,06,23,10,17,16.70
2006,06,23,10,18,16.80
2006,06,23,10,19,16.90
2006,06,23,10,20,16.90
2006,06,23,10,21,16.90
2006,06,23,10,22,17.00
2006,06,23,10,23,17.00
2006,06,23,10,24,17.00
2006,06,23,10,25,17.00
2006,06,23,10,26,16.90
2006,06,23,10,27,16.80
2006,06,23,10,28,16.70
2006,06,23,10,29,16.70
2006,06,23,10,30,16.60
2006,06,23,10,31,16.50
2006,06,23,10,32,16.40
2006,06,23,10,33,16.30
2006,06,23,10,34,16.30
2006,06,23,10,35,16.30
2006,06,23,10,36,16.20
2006,06,23,10,37,16.10
2006,06,23,10,38,16.10
2006,06,23,10,39,16.10
2006,06,23,10,40,16.20
2006,06,23,10,41,16.30
2006,06,23,10,42,16.30
2006,06,23,10,43,16.40
2006,06,23,10,44,16.40
2006,06,23,10,45,16.40
2006,06,23,10,46,16.30
2006,06,23,10,47,16.30
2006,06,23,10,48,16.30
2006,06,23,10,49,16.20
2006,06,23,10,50,16.30
2006,06,23,10,51,16.40
2006,06,23,10,52,16.40
2006,06,23,10,53,16.60
2006,06,23,10,54,16.70
2006,06,23,10,55,16.80
2006,06,23,10,56,17.00
2006,06,23,10,57,17.20
2006,06,23,10,58,17.20
2006,06,23,10,59,17.20
2006,06,23,11,00,17.20
2006,06,23,11,01,17.30
2006,06,23,11,02,17.30
2006,06,23,11,03,17.30
2006,06,23,11,04,17.30
2006,06,23,11,05,17.30
2006,06,23,11,06,17.40
2006,06,23,11,07,17.60
2006,06,23,11,08,17.80
2006,06,23,11,09,17.90
2006,06,23,11,10,18.10
2006,06,23,11,11,18.20
2006,06,23,11,12,18.40
2006,06,23,11,13,18.50
2006,06,23,11,14,18.60
2006,06,23,11,15,18.70
2006,06,23,11,16,18.80
2006,06,23,11,17,18.80
2006,06,23,11,18,18.70
2006,06,23,11,19,18.50
2006,06,23,11,20,18.30
2006,06,23,11,21,18.20
2006,06,23,11,22,18.20
2006,06,23,11,23,18.30
2006,06,23,11,24,18.50
2006,06,23,11,25,18.60
2006,06,23,11,26,18.70
2006,06,23,11,27,18.70
2006,06,23,11,28,18.90
2006,06,23,11,29,19.00
2006,06,23,11,30,19.10
2006,06,23,11,31,19.10
2006,06,23,11,32,19.30
2006,06,23,11,33,19.30
2006,06,23,11,34,19.40
2006,06,23,11,35,19.40
2006,06,23,11,36,19.30
2006,06,23,11,37,19.10
2006,06,23,11,38,19.00
2006,06,23,11,39,18.90
2006,06,23,11,40,18.90
2006,06,23,11,41,18.70
2006,06,23,11,42,18.50
2006,06,23,11,43,18.40
2006,06,23,11,44,18.20
2006,06,23,11,45,18.20
2006,06,23,11,46,18.10
2006,06,23,11,47,18.00
2006,06,23,11,48,17.90
2006,06,23,11,49,17.90
2006,06,23,11,50,17.80
2006,06,23,11,51,17.70
2006,06,23,11,52,17.70
2006,06,23,11,53,17.80
2006,06,23,11,54,17.90
2006,06,23,11,55,17.80
2006,06,23,11,56,17.70
2006,06,23,11,57,17.60
2006,06,23,11,58,17.60
2006,06,23,11,59,17.50
2006,06,23,12,00,17.40
2006,06,23,12,01,17.30
2006,06,23,12,02,17.30
2006,06,23,12,03,17.30
2006,06,23,12,04,17.30
2006,06,23,12,05,17.30
2006,06,23,12,06,17.30
2006,06,23,12,07,17.30
2006,06,23,12,08,17.30
2006,06,23,12,09,17.30
2006,06,23,12,10,17.30
2006,06,23,12,11,17.30
2006,06,23,12,12,17.40
2006,06,23,12,13,17.40
2006,06,23,12,14,17.30
2006,06,23,12,15,17.40
2006,06,23,12,16,17.40
2006,06,23,12,17,17.40
2006,06,23,12,18,17.40
2006,06,23,12,19,17.50
2006,06,23,12,20,17.60
2006,06,23,12,21,17.70
2006,06,23,12,22,17.70
2006,06,23,12,23,17.70
2006,06,23,12,24,17.60
2006,06,23,12,25,17.70
2006,06,23,12,26,17.80
2006,06,23,12,27,17.90
2006,06,23,12,28,18.00
2006,06,23,12,29,18.10
2006,06,23,12,30,18.20
2006,06,23,12,31,18.20
2006,06,23,12,32,18.20
2006,06,23,12,33,18.20
2006,06,23,12,34,18.00
2006,06,23,12,35,17.90
2006,06,23,12,36,17.80
2006,06,23,12,37,17.60
2006,06,23,12,38,17.50
2006,06,23,12,39,17.50
2006,06,23,12,40,17.50
2006,06,23,12,41,17.40
2006,06,23,12,42,17.40
2006,06,23,12,43,17.40
2006,06,23,12,44,17.30
2006,06,23,12,45,17.30
2006,06,23,12,46,17.30
2006,06,23,12,47,17.40
2006,06,23,12,48,17.50
2006,06,23,12,49,17.50
2006,06,23,12,50,17.50
2006,06,23,12,51,17.50
2006,06,23,12,52,17.50
2006,06,23,12,53,17.50
2006,06,23,12,54,17.50
2006,06,23,12,55,17.40
2006,06,23,12,56,17.30
2006,06,23,12,57,17.30
2006,06,23,12,58,17.40
2006,06,23,12,59,17.50
2006,06,23,13,00,17.50
2006,06,23,13,01,17.50
2006,06,23,13,02,17.40
2006,06,23,13,03,17.50
2006,06,23,13,04,17.50
2006,06,23,13,05,17.50
2006,06,23,13,06,17.60
2006,06,23,13,07,17.70
2006,06,23,13,08,17.60
2006,06,23,13,09,17.60
2006,06,23,13,10,17.40
2006,06,23,13,11,17.30
2006,06,23,13,12,17.30
2006,06,23,13,13,17.40
2006,06,23,13,14,17.60
2006,06,23,13,15,17.80
2006,06,23,13,16,17.90
2006,06,23,13,17,17.90
2006,06,23,13,18,17.90
2006,06,23,13,19,17.90
2006,06,23,13,20,17.90
2006,06,23,13,21,17.90
2006,06,23,13,22,18.00
2006,06,23,13,23,18.20
2006,06,23,13,24,18.20
2006,06,23,13,25,18.20
2006,06,23,13,26,18.20
2006,06,23,13,27,18.20
2006,06,23,13,28,18.20
2006,06,23,13,29,18.30
2006,06,23,13,30,18.40
2006,06,23,13,31,18.50
2006,06,23,13,32,18.60
2006,06,23,13,33,18.60
2006,06,23,13,34,18.70
2006,06,23,13,35,18.60
2006,06,23,13,36,18.20
2006,06,23,13,37,18.10
2006,06,23,13,38,18.10
2006,06,23,13,39,18.10
2006,06,23,13,40,18.10
2006,06,23,13,41,18.20
2006,06,23,13,42,18.10
2006,06,23,13,43,18.00
2006,06,23,13,44,17.80
2006,06,23,13,45,17.70
2006,06,23,13,46,17.50
2006,06,23,13,47,17.50
2006,06,23,13,48,17.50
2006,06,23,13,49,17.70
2006,06,23,13,50,17.80
2006,06,23,13,51,18.00
2006,06,23,13,52,18.10
2006,06,23,13,53,18.20
2006,06,23,13,54,18.10
2006,06,23,13,55,17.90
2006,06,23,13,56,17.90
2006,06,23,13,57,17.90
2006,06,23,13,58,17.90
2006,06,23,13,59,17.90
2006,06,23,14,00,17.90
2006,06,23,14,01,17.90
2006,06,23,14,02,18.00
2006,06,23,14,03,18.20
2006,06,23,14,04,18.30
2006,06,23,14,05,18.50
2006,06,23,14,06,18.50
2006,06,23,14,07,18.60
2006,06,23,14,08,18.70
2006,06,23,14,09,18.70
2006,06,23,14,10,18.60
2006,06,23,14,11,18.70
2006,06,23,14,12,18.70
2006,06,23,14,13,18.80
2006,06,23,14,14,18.90
2006,06,23,14,15,19.00
2006,06,23,14,16,19.10
2006,06,23,14,17,19.20
2006,06,23,14,18,19.20
2006,06,23,14,19,19.20
2006,06,23,14,20,19.20
2006,06,23,14,21,19.20
2006,06,23,14,22,19.20
2006,06,23,14,23,19.20
2006,06,23,14,24,19.10
2006,06,23,14,25,19.10
2006,06,23,14,26,19.20
2006,06,23,14,27,19.30
2006,06,23,14,28,19.40
2006,06,23,14,29,19.20
2006,06,23,14,30,19.10
2006,06,23,14,31,19.10
2006,06,23,14,32,19.10
2006,06,23,14,33,19.00
2006,06,23,14,34,18.90
2006,06,23,14,35,18.90
2006,06,23,14,36,18.90
2006,06,23,14,37,18.90
2006,06,23,14,38,18.90
2006,06,23,14,39,18.90
2006,06,23,14,40,18.90
2006,06,23,14,41,18.90
2006,06,23,14,42,19.00
2006,06,23,14,43,19.10
2006,06,23,14,44,19.20
2006,06,23,14,45,19.40
2006,06,23,14,46,19.60
2006,06,23,14,47,19.70
2006,06,23,14,48,19.70
2006,06,23,14,49,19.80
2006,06,23,14,50,19.80
2006,06,23,14,51,19.70
2006,06,23,14,52,19.70
2006,06,23,14,53,19.70
2006,06,23,14,54,19.80
2006,06,23,14,55,19.70
2006,06,23,14,56,19.80
2006,06,23,14,57,19.80
2006,06,23,14,58,19.80
2006,06,23,14,59,19.80
2006,06,23,15,00,19.90
2006,06,23,15,01,20.10
2006,06,23,15,02,20.20
2006,06,23,15,03,20.30
2006,06,23,15,04,20.30
2006,06,23,15,05,20.30
2006,06,23,15,06,20.20
2006,06,23,15,07,20.20
2006,06,23,15,08,20.10
2006,06,23,15,09,20.10
2006,06,23,15,10,20.10
2006,06,23,15,11,20.20
2006,06,23,15,12,20.20
2006,06,23,15,13,20.20
2006,06,23,15,14,20.20
2006,06,23,15,15,20.20
2006,06,23,15,16,20.10
2006,06,23,15,17,19.90
2006,06,23,15,18,19.90
2006,06,23,15,19,20.00
2006,06,23,15,20,20.10
2006,06,23,15,21,20.10
2006,06,23,15,22,20.10
2006,06,23,15,23,20.00
2006,06,23,15,24,19.90
2006,06,23,15,25,19.90
2006,06,23,15,26,19.90
2006,06,23,15,27,19.90
2006,06,23,15,28,19.80
2006,06,23,15,29,19.70
2006,06,23,15,30,19.70
2006,06,23,15,31,19.60
2006,06,23,15,32,19.50
2006,06,23,15,33,19.40
2006,06,23,15,34,19.40
2006,06,23,15,35,19.30
2006,06,23,15,36,19.40
2006,06,23,15,37,19.50
2006,06,23,15,38,19.70
2006,06,23,15,39,19.60
2006,06,23,15,40,19.70
2006,06,23,15,41,19.70
2006,06,23,15,42,19.80
2006,06,23,15,43,19.90
2006,06,23,15,44,20.00
2006,06,23,15,45,20.10
2006,06,23,15,46,20.20
2006,06,23,15,47,20.30
2006,06,23,15,48,20.40
2006,06,23,15,49,20.20
2006,06,23,15,50,20.10
2006,06,23,15,51,19.90
2006,06,23,15,52,19.70
2006,06,23,15,53,19.50
2006,06,23,15,54,19.50
2006,06,23,15,55,19.60
2006,06,23,15,56,19.60
2006,06,23,15,57,19.70
2006,06,23,15,58,19.80
2006,06,23,15,59,19.90
2006,06,23,16,00,20.00
2006,06,23,16,01,20.10
2006,06,23,16,02,20.20
2006,06,23,16,03,20.30
2006,06,23,16,04,20.40
2006,06,23,16,05,20.50
2006,06,23,16,06,20.60
2006,06,23,16,07,20.70
2006,06,23,16,08,20.80
2006,06,23,16,09,20.80
2006,06,23,16,10,20.90
2006,06,23,16,11,21.00
2006,06,23,16,12,21.00
2006,06,23,16,13,21.00
2006,06,23,16,14,20.90
2006,06,23,16,15,20.80
2006,06,23,16,16,20.70
2006,06,23,16,17,20.70
2006,06,23,16,18,20.60
2006,06,23,16,19,20.50
2006,06,23,16,20,20.30
2006,06,23,16,21,20.20
2006,06,23,16,22,20.20
2006,06,23,16,23,20.20
2006,06,23,16,24,20.40
2006,06,23,16,25,20.50
2006,06,23,16,26,20.60
2006,06,23,16,27,20.70
2006,06,23,16,28,20.70
2006,06,23,16,29,20.70
2006,06,23,16,30,20.80
2006,06,23,16,31,20.80
2006,06,23,16,32,20.70
2006,06,23,16,33,20.70
2006,06,23,16,34,20.70
2006,06,23,16,35,20.80
2006,06,23,16,36,21.00
2006,06,23,16,37,21.10
2006,06,23,16,38,21.20
2006,06,23,16,39,21.00
2006,06,23,16,40,21.00
2006,06,23,16,41,21.10
2006,06,23,16,42,21.20
2006,06,23,16,43,21.30
2006,06,23,16,44,21.50
2006,06,23,16,45,21.60
2006,06,23,16,46,21.70
2006,06,23,16,47,21.70
2006,06,23,16,48,21.80
2006,06,23,16,49,21.60
2006,06,23,16,50,21.40
2006,06,23,16,51,21.30
2006,06,23,16,52,21.30
2006,06,23,16,53,21.30
2006,06,23,16,54,21.40
2006,06,23,16,55,21.50
2006,06,23,16,56,21.60
2006,06,23,16,57,21.60
2006,06,23,16,58,21.60
2006,06,23,16,59,21.50
2006,06,23,17,00,21.30
2006,06,23,17,01,21.10
2006,06,23,17,02,21.00
2006,06,23,17,03,21.00
2006,06,23,17,04,20.90
2006,06,23,17,05,20.80
2006,06,23,17,06,21.00
2006,06,23,17,07,21.10
2006,06,23,17,08,21.20
2006,06,23,17,09,21.30
2006,06,23,17,10,21.40
2006,06,23,17,11,21.50
2006,06,23,17,12,21.60
2006,06,23,17,13,21.60
2006,06,23,17,14,21.70
2006,06,23,17,15,21.80
2006,06,23,17,16,21.90
2006,06,23,17,17,21.90
2006,06,23,17,18,22.00
2006,06,23,17,19,21.90
2006,06,23,17,20,21.70
2006,06,23,17,21,21.60
2006,06,23,17,22,21.60
2006,06,23,17,23,21.60
2006,06,23,17,24,21.40